Regional Weather Roundup
Issued by NWS

Home | Current Version | Previous Version | Text Only | Print | Product List | Glossary On
Versions: 1 2 3 4 5 6 7 8 9 10 11 12 13 14 15 16 17 18 19 20 21 22 23 24 25 26 27 28 29 30 31 32 33 34 35 36 37 38 39 40 41 42 43 44 45 46 47 48 49 50
000
ASUS43 KLMK 251410
RWRKY
KENTUCKY REGIONAL WEATHER ROUNDUP
NATIONAL WEATHER SERVICE LOUISVILLE KY
1000 AM EDT WED MAY 25 2016

NOTE "FAIR" INDICATES FEW OR NO CLOUDS BELOW 12,000 FEET
WITH NO SIGNIFICANT WEATHER AND/OR OBSTRUCTIONS TO VISIBILITY.

KYZ001>023-026-027-061>063-070>075-251500-
WESTERN AND SOUTH CENTRAL KENTUCKY

CITY           SKY/WX    TMP DP  RH WIND       PRES   REMARKS
PADUCAH        TSTM      68  65  90 NW7       30.12R FOG
HENDERSON      CLOUDY    73  61  64 S9        30.08S
OWENSBORO      CLOUDY    69  65  87 S8        30.11R
HOPKINSVILLE   DRIZZLE   69  65  89 S5        30.13F
BOWLING GREEN  CLOUDY    72  60  66 S9        30.15R
GLASGOW        CLOUDY    71  58  64 S6        30.16R
$$

KYZ024-025-028>034-038-045-046-053-251500-
NORTH CENTRAL KENTUCKY

CITY           SKY/WX    TMP DP  RH WIND       PRES   REMARKS
LOUISVILLE/SDF CLOUDY    71  58  63 S7        30.11S
LOUISVILLE/LOU CLOUDY    71  57  61 VRB6      30.13R
FORT KNOX      CLOUDY    70  59  69 S7        30.11S
$$

KYZ035>037-039>044-047>052-055>060-089>105-251500-
NORTHEAST KENTUCKY

CITY           SKY/WX    TMP DP  RH WIND       PRES   REMARKS
LEXINGTON      CLOUDY    69  55  60 S7        30.16F
COVINGTON      CLOUDY    69  55  60 S6        30.13S
FRANKFORT      CLOUDY    70  55  59 S6        30.14S
$$

KYZ054-064>069-076>088-106>120-251500-
SOUTHEAST KENTUCKY

CITY           SKY/WX    TMP DP  RH WIND       PRES   REMARKS
JACKSON        PTSUNNY   70  55  59 VRB3      30.22R
LONDON         PTSUNNY   69  55  60 S3        30.23R
SOMERSET       CLOUDY    64  55  72 S3        30.22S
MIDDLESBORO    CLOUDY    66  56  70 CALM      30.26R
MONTICELLO     CLOUDY    70  60  70 NE7       30.22S
$$





USA.gov is the U.S. government's official web portal to all federal, state and local government web resources and services.